Location: Le Petit-Vavre
(46.5081°N, 1.5239°E)
Time: 21:00:35
(UTC+00:00)

Cosmos 1844 - Pass Details

Date: 03 March 2021
Orbit: 822 x 868 km, 70.9° (Epoch: 20 April)

Event Time Altitude Azimuth Distance (km) Brightness Sun altitude
Rises 18:32:51 0° 336° (NNW) 3,461 7.2 -9.4°
Reaches altitude 10° 18:35:28 10° 343° (NNW) 2,516 6.4 -9.8°
Maximum altitude 18:40:59 44° 55° (NE) 1,179 4.1 -10.8°
Drops below altitude 10° 18:46:25 10° 127° (SE) 2,479 5.6 -11.7°
Enters shadow 18:46:37 - 128° (SE) 2,549 5.7 -11.8°
